Time,TemperatureF,DewpointF,PressureIn,WindDirection,WindDirectionDegrees,WindSpeedMPH,WindSpeedGustMPH,Humidity,HourlyPrecipIn,Conditions,Clouds,dailyrainin,SoftwareType,DateUTC
2013-05-27 00:01:00,56.6,45.4,30.16,NNE,29,4.0,5.0,66,0.00,,,0.00,VWS V12.08,2013-05-27 04:01:00,
2013-05-27 00:11:00,56.4,45.6,30.16,NNE,29,2.0,4.0,67,0.00,,,0.00,VWS V12.08,2013-05-27 04:11:00,
2013-05-27 00:16:00,56.3,45.5,30.16,NNE,29,2.0,4.0,67,0.00,,,0.00,VWS V12.08,2013-05-27 04:16:00,
2013-05-27 00:21:00,56.2,45.8,30.17,NNE,29,3.0,4.0,68,0.00,,,0.00,VWS V12.08,2013-05-27 04:21:00,
2013-05-27 00:31:00,56.2,46.2,30.17,NNE,32,4.0,5.0,69,0.00,,,0.00,VWS V12.08,2013-05-27 04:31:00,
2013-05-27 00:41:00,56.2,46.6,30.17,NNE,32,2.0,5.0,70,0.00,,,0.00,VWS V12.08,2013-05-27 04:41:00,
2013-05-27 00:46:00,56.0,46.4,30.17,NNE,32,3.0,5.0,70,0.00,,,0.00,VWS V12.08,2013-05-27 04:46:00,
2013-05-27 00:51:00,55.8,46.2,30.18,NNE,32,2.0,3.0,70,0.00,,,0.00,VWS V12.08,2013-05-27 04:51:00,
2013-05-27 01:01:00,55.4,46.2,30.17,NE,51,5.0,6.0,71,0.00,,,0.00,VWS V12.08,2013-05-27 05:01:00,
2013-05-27 01:11:00,55.0,44.3,30.18,NE,51,6.0,9.0,67,0.00,,,0.00,VWS V12.08,2013-05-27 05:11:00,
2013-05-27 01:16:00,55.1,44.0,30.18,NE,54,4.0,9.0,66,0.00,,,0.00,VWS V12.08,2013-05-27 05:16:00,
2013-05-27 01:21:00,55.4,43.8,30.18,NE,40,4.0,9.0,65,0.00,,,0.00,VWS V12.08,2013-05-27 05:21:00,
2013-05-27 01:31:00,55.6,44.0,30.18,NE,45,4.0,9.0,65,0.00,,,0.00,VWS V12.08,2013-05-27 05:31:00,
2013-05-27 01:41:00,55.4,44.2,30.18,NNE,31,5.0,6.0,66,0.00,,,0.00,VWS V12.08,2013-05-27 05:41:00,
2013-05-27 01:46:00,55.3,44.5,30.18,NE,56,6.0,7.0,67,0.00,,,0.00,VWS V12.08,2013-05-27 05:46:00,
2013-05-27 01:51:00,55.3,44.9,30.18,ENE,61,4.0,6.0,68,0.00,,,0.00,VWS V12.08,2013-05-27 05:51:00,
2013-05-27 02:01:00,55.3,44.9,30.18,NE,54,5.0,6.0,68,0.00,,,0.00,VWS V12.08,2013-05-27 06:01:00,
2013-05-27 02:11:00,55.1,45.1,30.18,ENE,60,5.0,6.0,69,0.00,,,0.00,VWS V12.08,2013-05-27 06:11:00,
2013-05-27 02:16:00,55.1,45.1,30.18,NE,50,6.0,10.0,69,0.00,,,0.00,VWS V12.08,2013-05-27 06:16:00,
2013-05-27 02:21:00,55.2,45.6,30.18,NE,50,3.0,6.0,70,0.00,,,0.00,VWS V12.08,2013-05-27 06:21:00,
2013-05-27 02:31:00,55.0,45.4,30.18,NE,52,5.0,7.0,70,0.00,,,0.00,VWS V12.08,2013-05-27 06:31:00,
2013-05-27 02:42:00,54.8,46.0,30.18,NE,45,3.0,7.0,72,0.00,,,0.00,VWS V12.08,2013-05-27 06:42:00,
2013-05-27 02:46:00,54.7,45.9,30.18,NE,46,5.0,7.0,72,0.00,,,0.00,VWS V12.08,2013-05-27 06:46:00,
2013-05-27 02:52:00,54.6,46.1,30.18,NE,46,5.0,5.0,73,0.00,,,0.00,VWS V12.08,2013-05-27 06:52:00,
2013-05-27 03:01:00,54.5,46.4,30.18,NNE,31,5.0,7.0,74,0.00,,,0.00,VWS V12.08,2013-05-27 07:01:00,
2013-05-27 03:12:00,54.3,46.6,30.19,NE,36,5.0,9.0,75,0.00,,,0.00,VWS V12.08,2013-05-27 07:12:00,
2013-05-27 03:22:00,54.0,46.3,30.18,NE,42,3.0,6.0,75,0.00,,,0.00,VWS V12.08,2013-05-27 07:22:00,
2013-05-27 03:31:00,53.9,46.2,30.18,NE,43,5.0,6.0,75,0.00,,,0.00,VWS V12.08,2013-05-27 07:31:00,
2013-05-27 03:32:00,53.9,46.2,30.18,NE,47,5.0,5.0,75,0.00,,,0.00,VWS V12.08,2013-05-27 07:32:00,
2013-05-27 03:42:00,53.9,46.5,30.18,NE,44,4.0,7.0,76,0.00,,,0.00,VWS V12.08,2013-05-27 07:42:00,
2013-05-27 03:52:00,53.8,46.4,30.18,NE,54,5.0,7.0,76,0.00,,,0.00,VWS V12.08,2013-05-27 07:52:00,
2013-05-27 04:01:00,53.7,46.3,30.18,NE,53,5.0,7.0,76,0.00,,,0.00,VWS V12.08,2013-05-27 08:01:00,
2013-05-27 04:02:00,53.7,46.3,30.18,NE,53,5.0,6.0,76,0.00,,,0.00,VWS V12.08,2013-05-27 08:02:00,
2013-05-27 04:12:00,53.9,46.5,30.18,NE,45,4.0,7.0,76,0.00,,,0.00,VWS V12.08,2013-05-27 08:12:00,
2013-05-27 04:16:00,53.8,46.4,30.18,NE,45,3.0,7.0,76,0.00,,,0.00,VWS V12.08,2013-05-27 08:16:00,
2013-05-27 04:22:00,53.5,46.1,30.18,NE,45,4.0,5.0,76,0.00,,,0.00,VWS V12.08,2013-05-27 08:22:00,
2013-05-27 04:31:00,53.2,45.8,30.18,NE,44,3.0,5.0,76,0.00,,,0.00,VWS V12.08,2013-05-27 08:31:00,
2013-05-27 04:32:00,53.2,45.8,30.18,NE,44,4.0,4.0,76,0.00,,,0.00,VWS V12.08,2013-05-27 08:32:00,
2013-05-27 04:42:00,53.0,46.0,30.18,NE,46,4.0,5.0,77,0.00,,,0.00,VWS V12.08,2013-05-27 08:42:00,
2013-05-27 04:46:00,53.0,46.0,30.18,NE,46,4.0,5.0,77,0.00,,,0.00,VWS V12.08,2013-05-27 08:46:00,
2013-05-27 04:52:00,52.8,45.8,30.19,NE,46,4.0,5.0,77,0.00,,,0.00,VWS V12.08,2013-05-27 08:52:00,
2013-05-27 05:01:00,52.9,46.2,30.19,NE,46,4.0,5.0,78,0.00,,,0.00,VWS V12.08,2013-05-27 09:01:00,
2013-05-27 05:02:00,52.9,46.2,30.19,NE,46,3.0,4.0,78,0.00,,,0.00,VWS V12.08,2013-05-27 09:02:00,
2013-05-27 05:12:00,52.6,46.0,30.19,NE,46,3.0,4.0,78,0.00,,,0.00,VWS V12.08,2013-05-27 09:12:00,
2013-05-27 05:16:00,52.1,45.8,30.19,NE,46,2.0,4.0,79,0.00,,,0.00,VWS V12.08,2013-05-27 09:16:00,
2013-05-27 05:22:00,51.5,45.2,30.19,NE,46,4.0,4.0,79,0.00,,,0.00,VWS V12.08,2013-05-27 09:22:00,
2013-05-27 05:31:00,50.8,44.9,30.19,NE,46,3.0,5.0,80,0.00,,,0.00,VWS V12.08,2013-05-27 09:31:00,
2013-05-27 05:32:00,50.8,44.9,30.19,NE,46,2.0,3.0,80,0.00,,,0.00,VWS V12.08,2013-05-27 09:32:00,
2013-05-27 05:42:00,50.3,44.7,30.20,NE,46,4.0,5.0,81,0.00,,,0.00,VWS V12.08,2013-05-27 09:42:00,
2013-05-27 05:52:00,49.9,44.6,30.20,NE,46,3.0,4.0,82,0.00,,,0.00,VWS V12.08,2013-05-27 09:52:00,
2013-05-27 06:01:00,49.7,44.4,30.20,NE,43,3.0,6.0,82,0.00,,,0.00,VWS V12.08,2013-05-27 10:01:00,
2013-05-27 06:12:00,49.8,44.8,30.20,NNE,28,5.0,6.0,83,0.00,,,0.00,VWS V12.08,2013-05-27 10:12:00,
2013-05-27 06:16:00,49.7,44.8,30.20,North,9,6.0,7.0,83,0.00,,,0.00,VWS V12.08,2013-05-27 10:16:00,
2013-05-27 06:22:00,49.6,44.7,30.20,North,360,3.0,6.0,83,0.00,,,0.00,VWS V12.08,2013-05-27 10:22:00,
2013-05-27 06:31:00,49.7,45.1,30.20,North,360,5.0,6.0,84,0.00,,,0.00,VWS V12.08,2013-05-27 10:31:00,
2013-05-27 06:32:00,49.7,45.1,30.20,North,360,4.0,5.0,84,0.00,,,0.00,VWS V12.08,2013-05-27 10:32:00,
2013-05-27 06:42:00,50.2,45.6,30.20,North,360,3.0,5.0,84,0.00,,,0.00,VWS V12.08,2013-05-27 10:42:00,
2013-05-27 06:46:00,50.5,46.2,30.20,North,360,3.0,5.0,85,0.00,,,0.00,VWS V12.08,2013-05-27 10:46:00,
2013-05-27 06:52:00,50.9,46.2,30.20,North,360,3.0,5.0,84,0.00,,,0.00,VWS V12.08,2013-05-27 10:52:00,
2013-05-27 07:01:00,51.7,47.3,30.20,North,360,3.0,5.0,85,0.00,,,0.00,VWS V12.08,2013-05-27 11:01:00,
2013-05-27 07:02:00,51.8,47.4,30.20,North,360,3.0,3.0,85,0.00,,,0.00,VWS V12.08,2013-05-27 11:02:00,
2013-05-27 07:12:00,52.7,48.3,30.20,NNE,18,2.0,3.0,85,0.00,,,0.00,VWS V12.08,2013-05-27 11:12:00,
2013-05-27 07:16:00,53.1,48.7,30.20,NNE,18,2.0,4.0,85,0.00,,,0.00,VWS V12.08,2013-05-27 11:16:00,
2013-05-27 07:22:00,53.6,49.2,30.20,NNE,17,2.0,4.0,85,0.00,,,0.00,VWS V12.08,2013-05-27 11:22:00,
2013-05-27 07:31:00,54.5,49.8,30.21,NNE,17,3.0,4.0,84,0.00,,,0.00,VWS V12.08,2013-05-27 11:31:00,
2013-05-27 07:32:00,54.6,49.9,30.21,NNE,17,2.0,4.0,84,0.00,,,0.00,VWS V12.08,2013-05-27 11:32:00,
2013-05-27 07:42:00,55.7,51.0,30.21,NNE,17,2.0,4.0,84,0.00,,,0.00,VWS V12.08,2013-05-27 11:42:00,
2013-05-27 07:46:00,56.0,51.2,30.21,NNE,17,2.0,4.0,84,0.00,,,0.00,VWS V12.08,2013-05-27 11:46:00,
2013-05-27 07:52:00,56.6,51.5,30.21,NNE,17,0.0,4.0,83,0.00,,,0.00,VWS V12.08,2013-05-27 11:52:00,
2013-05-27 08:01:00,57.4,52.3,30.21,NNE,17,0.0,4.0,83,0.00,,,0.00,VWS V12.08,2013-05-27 12:01:00,
2013-05-27 08:02:00,57.5,52.4,30.21,NNE,17,0.0,0.0,83,0.00,,,0.00,VWS V12.08,2013-05-27 12:02:00,
2013-05-27 08:12:00,59.4,53.2,30.21,North,10,0.0,2.0,80,0.00,,,0.00,VWS V12.08,2013-05-27 12:12:00,
2013-05-27 08:16:00,60.0,53.1,30.21,North,9,0.0,2.0,78,0.00,,,0.00,VWS V12.08,2013-05-27 12:16:00,
2013-05-27 08:22:00,60.8,53.5,30.21,North,9,0.0,1.0,77,0.00,,,0.00,VWS V12.08,2013-05-27 12:22:00,
2013-05-27 08:31:00,61.8,53.4,30.22,North,9,0.0,1.0,74,0.00,,,0.00,VWS V12.08,2013-05-27 12:31:00,
2013-05-27 08:32:00,61.8,53.4,30.22,North,9,0.0,0.0,74,0.00,,,0.00,VWS V12.08,2013-05-27 12:32:00,
2013-05-27 08:42:00,62.0,53.3,30.22,North,5,1.0,2.0,73,0.00,,,0.00,VWS V12.08,2013-05-27 12:42:00,
2013-05-27 08:52:00,62.4,53.6,30.22,North,5,2.0,3.0,73,0.00,,,0.00,VWS V12.08,2013-05-27 12:52:00,
2013-05-27 09:01:00,62.6,53.5,30.22,North,5,1.0,3.0,72,0.00,,,0.00,VWS V12.08,2013-05-27 13:01:00,
2013-05-27 09:12:00,63.2,54.0,30.22,ENE,67,2.0,3.0,72,0.00,,,0.00,VWS V12.08,2013-05-27 13:12:00,
2013-05-27 09:16:00,63.5,54.3,30.22,ENE,67,1.0,3.0,72,0.00,,,0.00,VWS V12.08,2013-05-27 13:16:00,
2013-05-27 09:22:00,64.0,54.8,30.22,ENE,68,2.0,3.0,72,0.00,,,0.00,VWS V12.08,2013-05-27 13:22:00,
2013-05-27 09:31:00,64.2,55.0,30.22,ENE,68,1.0,3.0,72,0.00,,,0.00,VWS V12.08,2013-05-27 13:31:00,
2013-05-27 09:32:00,64.3,55.1,30.22,ENE,68,2.0,3.0,72,0.00,,,0.00,VWS V12.08,2013-05-27 13:32:00,
2013-05-27 09:42:00,64.5,54.9,30.22,ENE,74,2.0,4.0,71,0.00,,,0.00,VWS V12.08,2013-05-27 13:42:00,
2013-05-27 09:46:00,64.4,54.8,30.22,ENE,75,2.0,4.0,71,0.00,,,0.00,VWS V12.08,2013-05-27 13:46:00,
2013-05-27 09:52:00,64.5,55.3,30.22,ESE,111,3.0,3.0,72,0.00,,,0.00,VWS V12.08,2013-05-27 13:52:00,
2013-05-27 10:01:00,64.6,55.0,30.22,SE,140,2.0,4.0,71,0.00,,,0.00,VWS V12.08,2013-05-27 14:01:00,
2013-05-27 10:02:00,64.6,55.0,30.22,SE,140,2.0,3.0,71,0.00,,,0.00,VWS V12.08,2013-05-27 14:02:00,
2013-05-27 10:12:00,64.7,55.1,30.22,SSE,157,4.0,5.0,71,0.00,,,0.00,VWS V12.08,2013-05-27 14:12:00,
2013-05-27 10:16:00,64.7,54.7,30.22,SSE,157,3.0,5.0,70,0.00,,,0.00,VWS V12.08,2013-05-27 14:16:00,
2013-05-27 10:22:00,64.7,54.7,30.22,SSE,163,3.0,5.0,70,0.00,,,0.00,VWS V12.08,2013-05-27 14:22:00,
2013-05-27 10:31:00,65.0,55.4,30.22,South,171,3.0,6.0,71,0.00,,,0.00,VWS V12.08,2013-05-27 14:31:00,
2013-05-27 10:32:00,65.0,55.4,30.22,South,171,4.0,5.0,71,0.00,,,0.00,VWS V12.08,2013-05-27 14:32:00,
2013-05-27 10:42:00,65.8,56.5,30.22,South,173,3.0,5.0,72,0.00,,,0.00,VWS V12.08,2013-05-27 14:42:00,
2013-05-27 10:46:00,66.2,57.3,30.22,South,173,3.0,5.0,73,0.00,,,0.00,VWS V12.08,2013-05-27 14:46:00,
2013-05-27 10:52:00,66.5,57.2,30.22,South,175,4.0,5.0,72,0.00,,,0.00,VWS V12.08,2013-05-27 14:52:00,
2013-05-27 11:01:00,66.8,57.1,30.22,South,175,5.0,5.0,71,0.00,,,0.00,VWS V12.08,2013-05-27 15:01:00,
2013-05-27 11:02:00,66.8,56.7,30.22,South,175,6.0,6.0,70,0.00,,,0.00,VWS V12.08,2013-05-27 15:02:00,
2013-05-27 11:12:00,66.8,57.5,30.22,South,179,4.0,7.0,72,0.00,,,0.00,VWS V12.08,2013-05-27 15:12:00,
2013-05-27 11:16:00,66.9,57.2,30.22,South,181,6.0,8.0,71,0.00,,,0.00,VWS V12.08,2013-05-27 15:16:00,
2013-05-27 11:22:00,66.9,57.2,30.22,South,182,6.0,7.0,71,0.00,,,0.00,VWS V12.08,2013-05-27 15:22:00,
2013-05-27 11:31:00,67.4,57.7,30.22,South,178,6.0,7.0,71,0.00,,,0.00,VWS V12.08,2013-05-27 15:31:00,
2013-05-27 11:32:00,67.4,57.7,30.22,South,178,6.0,6.0,71,0.00,,,0.00,VWS V12.08,2013-05-27 15:32:00,
2013-05-27 11:42:00,67.3,57.2,30.22,SSE,157,7.0,8.0,70,0.00,,,0.00,VWS V12.08,2013-05-27 15:42:00,
2013-05-27 11:52:00,67.4,57.3,30.21,SSE,166,6.0,8.0,70,0.00,,,0.00,VWS V12.08,2013-05-27 15:52:00,
2013-05-27 12:01:00,67.9,57.4,30.21,South,171,6.0,8.0,69,0.00,,,0.00,VWS V12.08,2013-05-27 16:01:00,
2013-05-27 12:02:00,67.9,57.4,30.21,South,169,5.0,7.0,69,0.00,,,0.00,VWS V12.08,2013-05-27 16:02:00,
2013-05-27 12:12:00,67.2,57.1,30.21,SE,145,6.0,9.0,70,0.00,,,0.00,VWS V12.08,2013-05-27 16:12:00,
2013-05-27 12:22:00,67.2,57.9,30.21,SSE,153,6.0,8.0,72,0.00,,,0.00,VWS V12.08,2013-05-27 16:22:00,
2013-05-27 12:31:00,67.4,58.1,30.20,SSE,163,5.0,8.0,72,0.00,,,0.00,VWS V12.08,2013-05-27 16:31:00,
2013-05-27 12:32:00,67.4,58.1,30.20,SSE,163,7.0,7.0,72,0.00,,,0.00,VWS V12.08,2013-05-27 16:32:00,
2013-05-27 12:42:00,67.9,57.4,30.20,South,169,8.0,10.0,69,0.00,,,0.00,VWS V12.08,2013-05-27 16:42:00,
2013-05-27 12:46:00,68.0,57.5,30.20,South,173,5.0,10.0,69,0.00,,,0.00,VWS V12.08,2013-05-27 16:46:00,
2013-05-27 12:52:00,67.5,55.8,30.20,South,189,12.0,13.0,66,0.00,,,0.00,VWS V12.08,2013-05-27 16:52:00,
2013-05-27 13:01:00,66.7,55.4,30.19,South,186,13.0,14.0,67,0.00,,,0.00,VWS V12.08,2013-05-27 17:01:00,
2013-05-27 13:02:00,66.7,55.4,30.19,South,182,12.0,13.0,67,0.00,,,0.00,VWS V12.08,2013-05-27 17:02:00,
2013-05-27 13:12:00,67.3,56.0,30.19,South,184,10.0,13.0,67,0.00,,,0.00,VWS V12.08,2013-05-27 17:12:00,
2013-05-27 13:16:00,67.0,55.3,30.19,South,190,7.0,13.0,66,0.00,,,0.00,VWS V12.08,2013-05-27 17:16:00,
2013-05-27 13:22:00,66.8,54.7,30.19,SSW,193,9.0,13.0,65,0.00,,,0.00,VWS V12.08,2013-05-27 17:22:00,
2013-05-27 13:31:00,66.6,54.1,30.18,South,191,14.0,20.0,64,0.00,,,0.00,VWS V12.08,2013-05-27 17:31:00,
2013-05-27 13:42:00,66.5,54.0,30.18,SSW,192,14.0,18.0,64,0.00,,,0.00,VWS V12.08,2013-05-27 17:42:00,
2013-05-27 13:46:00,66.4,53.9,30.18,South,184,15.0,18.0,64,0.00,,,0.00,VWS V12.08,2013-05-27 17:46:00,
2013-05-27 13:52:00,66.3,54.6,30.18,South,191,15.0,17.0,66,0.00,,,0.00,VWS V12.08,2013-05-27 17:52:00,
2013-05-27 14:01:00,65.9,52.5,30.17,South,190,11.0,17.0,62,0.00,,,0.00,VWS V12.08,2013-05-27 18:01:00,
2013-05-27 14:02:00,65.9,53.0,30.17,SSW,194,10.0,13.0,63,0.00,,,0.00,VWS V12.08,2013-05-27 18:02:00,
2013-05-27 14:12:00,66.1,53.2,30.17,SSW,202,13.0,19.0,63,0.00,,,0.00,VWS V12.08,2013-05-27 18:12:00,
2013-05-27 14:16:00,66.3,52.5,30.17,SSW,208,14.0,19.0,61,0.00,,,0.00,VWS V12.08,2013-05-27 18:16:00,
2013-05-27 14:22:00,66.1,52.7,30.17,SSW,206,13.0,19.0,62,0.00,,,0.00,VWS V12.08,2013-05-27 18:22:00,
2013-05-27 14:31:00,66.3,52.9,30.17,South,190,10.0,19.0,62,0.00,,,0.00,VWS V12.08,2013-05-27 18:31:00,
2013-05-27 14:32:00,66.3,52.9,30.17,SSW,201,15.0,15.0,62,0.00,,,0.00,VWS V12.08,2013-05-27 18:32:00,
2013-05-27 14:42:00,66.0,52.6,30.16,SSW,196,11.0,17.0,62,0.00,,,0.00,VWS V12.08,2013-05-27 18:42:00,
2013-05-27 14:52:00,65.6,52.2,30.16,South,188,12.0,17.0,62,0.00,,,0.00,VWS V12.08,2013-05-27 18:52:00,
2013-05-27 15:01:00,65.7,51.9,30.16,South,188,14.0,17.0,61,0.00,,,0.00,VWS V12.08,2013-05-27 19:01:00,
2013-05-27 15:02:00,65.7,51.5,30.16,South,187,14.0,15.0,60,0.00,,,0.00,VWS V12.08,2013-05-27 19:02:00,
2013-05-27 15:12:00,65.2,52.3,30.16,South,188,15.0,17.0,63,0.00,,,0.00,VWS V12.08,2013-05-27 19:12:00,
2013-05-27 15:16:00,64.9,51.6,30.16,South,189,16.0,19.0,62,0.00,,,0.00,VWS V12.08,2013-05-27 19:16:00,
2013-05-27 15:22:00,64.8,51.9,30.16,SSW,198,12.0,18.0,63,0.00,,,0.00,VWS V12.08,2013-05-27 19:22:00,
2013-05-27 15:31:00,64.9,52.0,30.16,SSW,200,14.0,18.0,63,0.00,,,0.00,VWS V12.08,2013-05-27 19:31:00,
2013-05-27 15:42:00,64.5,51.6,30.16,SSW,209,12.0,16.0,63,0.00,,,0.00,VWS V12.08,2013-05-27 19:42:00,
2013-05-27 15:46:00,64.4,52.8,30.15,SSW,200,13.0,16.0,66,0.00,,,0.00,VWS V12.08,2013-05-27 19:46:00,
2013-05-27 15:52:00,64.3,53.5,30.15,SW,221,12.0,18.0,68,0.00,,,0.00,VWS V12.08,2013-05-27 19:52:00,
2013-05-27 16:01:00,64.4,53.2,30.15,SSW,209,13.0,18.0,67,0.00,,,0.00,VWS V12.08,2013-05-27 20:01:00,
2013-05-27 16:02:00,64.4,53.2,30.15,SW,221,14.0,14.0,67,0.00,,,0.00,VWS V12.08,2013-05-27 20:02:00,
2013-05-27 16:12:00,64.3,53.5,30.15,SSW,211,12.0,16.0,68,0.00,,,0.00,VWS V12.08,2013-05-27 20:12:00,
2013-05-27 16:16:00,64.1,53.7,30.15,SSW,198,13.0,17.0,69,0.00,,,0.00,VWS V12.08,2013-05-27 20:16:00,
2013-05-27 16:22:00,63.8,53.8,30.15,SSW,207,10.0,16.0,70,0.00,,,0.00,VWS V12.08,2013-05-27 20:22:00,
2013-05-27 16:31:00,63.2,54.0,30.15,SW,214,11.0,16.0,72,0.00,,,0.00,VWS V12.08,2013-05-27 20:31:00,
2013-05-27 16:32:00,63.2,54.4,30.15,SW,214,13.0,13.0,73,0.00,,,0.00,VWS V12.08,2013-05-27 20:32:00,
2013-05-27 16:42:00,62.9,54.5,30.14,SW,215,9.0,15.0,74,0.00,,,0.00,VWS V12.08,2013-05-27 20:42:00,
2013-05-27 16:52:00,62.7,54.7,30.14,SW,223,9.0,14.0,75,0.00,,,0.00,VWS V12.08,2013-05-27 20:52:00,
2013-05-27 17:01:00,62.4,54.4,30.14,SSW,205,11.0,14.0,75,0.00,,,0.00,VWS V12.08,2013-05-27 21:01:00,
2013-05-27 17:02:00,62.4,54.4,30.14,SSW,213,10.0,11.0,75,0.00,,,0.00,VWS V12.08,2013-05-27 21:02:00,
2013-05-27 17:12:00,62.5,54.5,30.14,SW,217,10.0,13.0,75,0.00,,,0.00,VWS V12.08,2013-05-27 21:12:00,
2013-05-27 17:16:00,62.5,54.5,30.14,SSW,205,10.0,13.0,75,0.00,,,0.00,VWS V12.08,2013-05-27 21:16:00,
2013-05-27 17:22:00,62.5,54.5,30.14,SSW,205,10.0,12.0,75,0.00,,,0.00,VWS V12.08,2013-05-27 21:22:00,
2013-05-27 17:31:00,62.4,54.4,30.14,SW,215,6.0,12.0,75,0.00,,,0.00,VWS V12.08,2013-05-27 21:31:00,
2013-05-27 17:32:00,62.5,54.5,30.14,SSW,213,8.0,10.0,75,0.00,,,0.00,VWS V12.08,2013-05-27 21:32:00,
2013-05-27 17:42:00,62.3,54.7,30.14,SSW,213,9.0,10.0,76,0.00,,,0.00,VWS V12.08,2013-05-27 21:42:00,
2013-05-27 17:46:00,62.2,54.9,30.14,SSW,212,6.0,10.0,77,0.00,,,0.00,VWS V12.08,2013-05-27 21:46:00,
2013-05-27 17:52:00,62.0,54.7,30.14,SSW,207,6.0,9.0,77,0.00,,,0.00,VWS V12.08,2013-05-27 21:52:00,
2013-05-27 18:01:00,61.8,54.9,30.14,SW,214,5.0,9.0,78,0.00,,,0.00,VWS V12.08,2013-05-27 22:01:00,
2013-05-27 18:02:00,61.9,55.0,30.14,SW,216,8.0,8.0,78,0.00,,,0.00,VWS V12.08,2013-05-27 22:02:00,
2013-05-27 18:12:00,61.7,54.4,30.14,SW,223,10.0,11.0,77,0.00,,,0.00,VWS V12.08,2013-05-27 22:12:00,
2013-05-27 18:16:00,61.7,54.4,30.13,SW,221,5.0,11.0,77,0.00,,,0.00,VWS V12.08,2013-05-27 22:16:00,
2013-05-27 18:22:00,61.6,54.3,30.14,SW,222,6.0,12.0,77,0.00,,,0.00,VWS V12.08,2013-05-27 22:22:00,
2013-05-27 18:31:00,61.5,54.6,30.14,SW,219,8.0,13.0,78,0.00,,,0.00,VWS V12.08,2013-05-27 22:31:00,
2013-05-27 18:42:00,61.5,54.6,30.14,SW,219,6.0,11.0,78,0.00,,,0.00,VWS V12.08,2013-05-27 22:42:00,
2013-05-27 18:46:00,61.4,54.5,30.14,SW,217,9.0,11.0,78,0.00,,,0.00,VWS V12.08,2013-05-27 22:46:00,
2013-05-27 18:52:00,61.2,54.6,30.14,SW,223,8.0,11.0,79,0.00,,,0.00,VWS V12.08,2013-05-27 22:52:00,
2013-05-27 19:01:00,61.1,54.5,30.14,SSW,213,7.0,11.0,79,0.00,,,0.00,VWS V12.08,2013-05-27 23:01:00,
2013-05-27 19:02:00,61.1,54.5,30.14,SSW,208,6.0,10.0,79,0.00,,,0.00,VWS V12.08,2013-05-27 23:02:00,
2013-05-27 19:12:00,60.6,54.4,30.14,SSW,211,6.0,10.0,80,0.00,,,0.00,VWS V12.08,2013-05-27 23:12:00,
2013-05-27 19:16:00,60.4,54.2,30.14,SW,220,5.0,10.0,80,0.00,,,0.00,VWS V12.08,2013-05-27 23:16:00,
2013-05-27 19:22:00,60.2,54.4,30.14,SW,219,6.0,10.0,81,0.00,,,0.00,VWS V12.08,2013-05-27 23:22:00,
2013-05-27 19:31:00,59.9,54.1,30.14,SW,223,7.0,10.0,81,0.00,,,0.00,VWS V12.08,2013-05-27 23:31:00,
2013-05-27 19:32:00,59.9,54.1,30.14,SW,215,6.0,7.0,81,0.00,,,0.00,VWS V12.08,2013-05-27 23:32:00,
2013-05-27 19:42:00,60.0,54.5,30.14,SW,217,6.0,10.0,82,0.00,,,0.00,VWS V12.08,2013-05-27 23:42:00,
2013-05-27 19:46:00,60.0,54.5,30.14,SW,216,9.0,11.0,82,0.00,,,0.00,VWS V12.08,2013-05-27 23:46:00,
2013-05-27 19:52:00,59.8,54.6,30.14,SW,217,6.0,10.0,83,0.00,,,0.00,VWS V12.08,2013-05-27 23:52:00,
2013-05-27 20:01:00,59.6,54.8,30.15,SW,218,6.0,10.0,84,0.00,,,0.00,VWS V12.08,2013-05-28 00:01:00,
2013-05-27 20:02:00,59.6,54.8,30.15,SW,216,6.0,7.0,84,0.00,,,0.00,VWS V12.08,2013-05-28 00:02:00,
2013-05-27 20:12:00,59.2,54.7,30.14,SW,217,7.0,9.0,85,0.00,,,0.00,VWS V12.08,2013-05-28 00:12:00,
2013-05-27 20:16:00,59.0,54.8,30.14,SW,231,6.0,9.0,86,0.00,,,0.00,VWS V12.08,2013-05-28 00:16:00,
2013-05-27 20:22:00,58.9,54.7,30.14,SSW,212,5.0,10.0,86,0.00,,,0.00,VWS V12.08,2013-05-28 00:22:00,
2013-05-27 20:31:00,58.9,55.0,30.14,SW,228,10.0,10.0,87,0.00,,,0.00,VWS V12.08,2013-05-28 00:31:00,
2013-05-27 20:32:00,58.8,55.0,30.14,SW,216,6.0,10.0,87,0.00,,,0.00,VWS V12.08,2013-05-28 00:32:00,
2013-05-27 20:42:00,58.9,55.4,30.14,SW,236,6.0,10.0,88,0.00,,,0.00,VWS V12.08,2013-05-28 00:42:00,
2013-05-27 20:46:00,58.9,55.4,30.14,SW,225,7.0,11.0,88,0.00,,,0.00,VWS V12.08,2013-05-28 00:46:00,
2013-05-27 20:52:00,58.8,55.3,30.15,SW,225,5.0,8.0,88,0.00,,,0.00,VWS V12.08,2013-05-28 00:52:00,
2013-05-27 21:01:00,58.7,55.2,30.15,SW,232,4.0,8.0,88,0.00,,,0.00,VWS V12.08,2013-05-28 01:01:00,
2013-05-27 21:02:00,58.7,55.2,30.15,SW,234,4.0,4.0,88,0.00,,,0.00,VWS V12.08,2013-05-28 01:02:00,
2013-05-27 21:12:00,58.6,55.1,30.15,SW,223,4.0,7.0,88,0.00,,,0.00,VWS V12.08,2013-05-28 01:12:00,
2013-05-27 21:16:00,58.5,55.0,30.15,SW,235,4.0,7.0,88,0.00,,,0.00,VWS V12.08,2013-05-28 01:16:00,
2013-05-27 21:22:00,58.4,54.9,30.15,WSW,246,4.0,6.0,88,0.00,,,0.00,VWS V12.08,2013-05-28 01:22:00,
2013-05-27 21:31:00,58.4,54.9,30.15,SW,234,5.0,7.0,88,0.00,,,0.00,VWS V12.08,2013-05-28 01:31:00,
2013-05-27 21:32:00,58.3,54.8,30.15,SW,236,6.0,6.0,88,0.00,,,0.00,VWS V12.08,2013-05-28 01:32:00,
2013-05-27 21:42:00,58.3,54.8,30.15,WSW,254,5.0,6.0,88,0.00,,,0.00,VWS V12.08,2013-05-28 01:42:00,
2013-05-27 21:52:00,58.6,55.1,30.16,WSW,253,4.0,7.0,88,0.00,,,0.00,VWS V12.08,2013-05-28 01:52:00,
2013-05-27 22:01:00,58.7,55.2,30.16,WSW,243,6.0,9.0,88,0.00,,,0.00,VWS V12.08,2013-05-28 02:01:00,
2013-05-27 22:02:00,58.8,55.3,30.16,WSW,244,5.0,6.0,88,0.00,,,0.00,VWS V12.08,2013-05-28 02:02:00,
2013-05-27 22:12:00,59.0,55.5,30.16,WSW,246,5.0,7.0,88,0.00,,,0.00,VWS V12.08,2013-05-28 02:12:00,
2013-05-27 22:16:00,59.0,55.5,30.16,WSW,251,5.0,7.0,88,0.00,,,0.00,VWS V12.08,2013-05-28 02:16:00,
2013-05-27 22:22:00,59.0,55.1,30.16,WSW,238,4.0,6.0,87,0.00,,,0.00,VWS V12.08,2013-05-28 02:22:00,
2013-05-27 22:31:00,59.0,55.1,30.16,WSW,247,7.0,7.0,87,0.00,,,0.00,VWS V12.08,2013-05-28 02:31:00,
2013-05-27 22:32:00,59.0,55.1,30.16,WSW,252,6.0,7.0,87,0.00,,,0.00,VWS V12.08,2013-05-28 02:32:00,
2013-05-27 22:42:00,59.1,55.2,30.16,SW,229,3.0,7.0,87,0.00,,,0.00,VWS V12.08,2013-05-28 02:42:00,
2013-05-27 22:46:00,59.1,55.2,30.16,SW,225,1.0,7.0,87,0.00,,,0.00,VWS V12.08,2013-05-28 02:46:00,
2013-05-27 22:52:00,58.9,55.0,30.17,WSW,252,5.0,8.0,87,0.00,,,0.00,VWS V12.08,2013-05-28 02:52:00,
2013-05-27 23:01:00,58.9,55.0,30.16,WSW,246,3.0,8.0,87,0.00,,,0.00,VWS V12.08,2013-05-28 03:01:00,
2013-05-27 23:02:00,58.9,55.0,30.16,WSW,246,4.0,5.0,87,0.00,,,0.00,VWS V12.08,2013-05-28 03:02:00,
2013-05-27 23:12:00,58.6,54.8,30.16,WSW,248,3.0,5.0,87,0.00,,,0.00,VWS V12.08,2013-05-28 03:12:00,
2013-05-27 23:16:00,58.5,55.0,30.17,WSW,249,3.0,5.0,88,0.00,,,0.00,VWS V12.08,2013-05-28 03:16:00,
2013-05-27 23:22:00,58.5,55.0,30.17,WSW,250,3.0,4.0,88,0.00,,,0.00,VWS V12.08,2013-05-28 03:22:00,
2013-05-27 23:31:00,58.5,55.0,30.17,WSW,251,3.0,5.0,88,0.00,,,0.00,VWS V12.08,2013-05-28 03:31:00,
2013-05-27 23:42:00,58.0,54.5,30.17,SW,229,5.0,7.0,88,0.00,,,0.00,VWS V12.08,2013-05-28 03:42:00,
2013-05-27 23:52:00,57.9,54.4,30.17,SW,231,4.0,6.0,88,0.00,,,0.00,VWS V12.08,2013-05-28 03:52:00,